| time (UTC) | temp C | wind direction | speed KPH | gust KPH | rain 1hr cm | rain 24hr cm | rain mn cm | humidity % | barometer mb |
| 20260903200041 | 20 | 281 | 0.0 | 0.0 | 0.61 | 2.62 | 2.62 | 99 | 1014.4 |
| 20260903195537 | 20 | 43 | 0.0 | 0.0 | 0.48 | 2.57 | 2.57 | 99 | 1014.8 |
| 20260903195032 | 20 | 18 | 0.0 | 0.0 | 0.48 | 2.51 | 2.51 | 99 | 1015.1 |
| 20260903194527 | 20 | 282 | 1.6 | 3.2 | 0.61 | 2.49 | 2.49 | 99 | 1015.6 |
| 20260903194022 | 21 | 343 | 0.0 | 0.0 | 0.43 | 2.44 | 2.44 | 99 | 1015.3 |
| 20260903193519 | 21 | 303 | 3.2 | 3.2 | 0.30 | 2.39 | 2.39 | 99 | 1015.7 |
| 20260903193014 | 21 | 60 | 0.0 | 0.0 | 0.18 | 2.36 | 2.36 | 99 | 1015.6 |
| 20260903192510 | 21 | 248 | 0.0 | 0.0 | 0.00 | 2.34 | 2.34 | 99 | 1015.8 |
| 20260903192005 | 21 | 217 | 1.6 | 1.6 | 0.13 | 2.34 | 2.34 | 99 | 1015.8 |
| 20260903191501 | 21 | 259 | 0.0 | 0.0 | 0.61 | 2.34 | 2.34 | 99 | 1014.8 |
| 20260903191000 | 21 | 330 | 0.0 | 0.0 | 0.89 | 2.34 | 2.34 | 99 | 1014.2 |
| 20260903190455 | 21 | 39 | 1.6 | 3.2 | 0.48 | 2.24 | 2.24 | 99 | 1014.2 |
| 20260903185949 | 21 | 53 | 3.2 | 4.8 | 0.18 | 2.18 | 2.18 | 99 | 1015.2 |
| 20260903185445 | 20 | 303 | 1.6 | 3.2 | 0.30 | 2.18 | 2.18 | 99 | 1015.5 |
| 20260903184944 | 21 | 326 | 6.4 | 9.7 | 0.43 | 2.16 | 2.16 | 99 | 1014.8 |
| 20260903184442 | 20 | 283 | 4.8 | 4.8 | 0.30 | 2.13 | 2.13 | 99 | 1013.8 |
| 20260903183936 | 20 | 247 | 0.0 | 0.0 | 0.00 | 2.08 | 2.08 | 99 | 1012.4 |
| 20260903183431 | 20 | 258 | 0.0 | 0.0 | 0.00 | 2.08 | 2.08 | 99 | 1012.4 |
| 20260903182930 | 20 | 252 | 0.0 | 0.0 | 0.00 | 2.08 | 2.08 | 99 | 1012.6 |
| 20260903182429 | 20 | 112 | 1.6 | 3.2 | 0.18 | 2.08 | 2.08 | 99 | 1013.0 |
| 20260903181925 | 20 | 38 | 1.6 | 1.6 | 4.75 | 2.08 | 2.08 | 99 | 1013.3 |
| 20260903181419 | 20 | 3 | 4.8 | 8.0 | 8.41 | 2.08 | 2.08 | 99 | 1012.5 |
| 20260903180918 | 22 | 186 | 4.8 | 4.8 | 5.77 | 1.35 | 1.35 | 99 | 1015.9 |
| 20260903180413 | 22 | 240 | 6.4 | 9.7 | 0.48 | 0.43 | 0.43 | 99 | 1014.1 |
| 20260903175912 | 22 | 338 | 0.0 | 1.6 | 0.18 | 0.38 | 0.38 | 99 | 1012.6 |
| 20260903175407 | 22 | 282 | 0.0 | 0.0 | 0.00 | 0.36 | 0.36 | 99 | 1012.2 |
| 20260903174902 | 22 | 83 | 0.0 | 0.0 | 0.00 | 0.36 | 0.36 | 99 | 1012.3 |
| 20260903174357 | 22 | 11 | 0.0 | 0.0 | 0.00 | 0.36 | 0.36 | 99 | 1012.4 |
| 20260903173857 | 23 | 5 | 0.0 | 0.0 | 0.00 | 0.36 | 0.36 | 99 | 1012.4 |
| 20260903173352 | 23 | 279 | 0.0 | 0.0 | 0.89 | 0.36 | 0.36 | 98 | 1012.7 |
| 20260903172848 | 23 | 328 | 0.0 | 0.0 | 1.07 | 0.36 | 0.36 | 96 | 1012.7 |
| 20260903172342 | 23 | 96 | 1.6 | 3.2 | 0.30 | 0.23 | 0.23 | 92 | 1012.9 |
| 20260903171838 | 23 | 59 | 1.6 | 1.6 | 0.00 | 0.18 | 0.18 | 92 | 1013.2 |
| 20260903171333 | 23 | 70 | 0.0 | 0.0 | 0.00 | 0.18 | 0.18 | 92 | 1013.0 |
| 20260903170832 | 23 | 66 | 0.0 | 1.6 | 0.00 | 0.18 | 0.18 | 92 | 1012.7 |
| 20260903170328 | 24 | 67 | 3.2 | 8.0 | 0.00 | 0.18 | 0.18 | 91 | 1012.7 |
| 20260903165826 | 24 | 91 | 1.6 | 1.6 | 0.00 | 0.18 | 0.18 | 92 | 1012.7 |
| 20260903165325 | 23 | 81 | 1.6 | 1.6 | 0.00 | 0.18 | 0.18 | 93 | 1013.0 |
| 20260903164820 | 23 | 64 | 4.8 | 8.0 | 0.00 | 0.18 | 0.18 | 93 | 1013.1 |
| 20260903164316 | 23 | 54 | 0.0 | 1.6 | 0.00 | 0.18 | 0.18 | 94 | 1013.3 |
| 20260903163815 | 23 | 26 | 0.0 | 0.0 | 0.00 | 0.18 | 0.18 | 94 | 1013.3 |
| 20260903163312 | 23 | 76 | 0.0 | 0.0 | 0.00 | 0.18 | 0.18 | 95 | 1013.4 |
| 20260903162807 | 23 | 158 | 4.8 | 8.0 | 0.00 | 0.18 | 0.18 | 95 | 1013.5 |
| 20260903162306 | 23 | 186 | 0.0 | 0.0 | 0.00 | 0.18 | 0.18 | 96 | 1013.5 |
| 20260903161759 | 23 | 61 | 0.0 | 1.6 | 0.00 | 0.18 | 0.18 | 96 | 1013.6 |
| 20260903161254 | 23 | 302 | 0.0 | 0.0 | 0.00 | 0.18 | 0.18 | 98 | 1013.6 |
| 20260903160750 | 23 | 281 | 0.0 | 0.0 | 0.00 | 0.18 | 0.18 | 98 | 1013.7 |
| 20260903160249 | 23 | 54 | 0.0 | 0.0 | 0.00 | 0.18 | 0.18 | 98 | 1013.6 |
| 20260903155747 | 23 | 56 | 0.0 | 1.6 | 0.00 | 0.18 | 0.18 | 98 | 1013.8 |
| 20260903155242 | 23 | 306 | 0.0 | 0.0 | 0.00 | 0.18 | 0.18 | 99 | 1013.8 |
| 20260903154738 | 22 | 291 | 0.0 | 0.0 | 0.00 | 0.18 | 0.18 | 99 | 1013.9 |
| 20260903154234 | 22 | 19 | 0.0 | 1.6 | 0.00 | 0.18 | 0.18 | 99 | 1013.9 |
| 20260903153729 | 22 | 229 | 4.8 | 4.8 | 0.00 | 0.18 | 0.18 | 99 | 1014.2 |
| 20260903153225 | 22 | 292 | 0.0 | 0.0 | 0.00 | 0.18 | 0.18 | 99 | 1014.5 |
| 20260903152721 | 22 | 265 | 0.0 | 0.0 | 0.00 | 0.18 | 0.18 | 99 | 1014.7 |
| 20260903152217 | 22 | 224 | 1.6 | 1.6 | 0.00 | 0.18 | 0.18 | 99 | 1014.6 |
| 20260903151717 | 22 | 310 | 4.8 | 8.0 | 0.00 | 0.18 | 0.18 | 99 | 1015.4 |
| 20260903151212 | 23 | 308 | 4.8 | 8.0 | 0.00 | 0.18 | 0.18 | 99 | 1015.2 |
| 20260903150707 | 23 | 312 | 0.0 | 0.0 | 0.00 | 0.18 | 0.18 | 99 | 1015.2 |
| 20260903150202 | 24 | 306 | 0.0 | 0.0 | 0.00 | 0.18 | 0.18 | 99 | 1015.1 |
| 20260903145702 | 24 | 249 | 1.6 | 3.2 | 0.00 | 0.18 | 0.18 | 99 | 1014.7 |
| 20260903145157 | 24 | 301 | 1.6 | 1.6 | 0.00 | 0.18 | 0.18 | 99 | 1014.4 |
| 20260903144656 | 25 | 296 | 1.6 | 1.6 | 0.13 | 0.18 | 0.18 | 99 | 1013.6 |
| 20260903144152 | 25 | 349 | 0.0 | 0.0 | 0.89 | 0.18 | 0.18 | 99 | 1013.3 |
| 20260903143648 | 25 | 298 | 0.0 | 0.0 | 0.89 | 0.18 | 0.18 | 99 | 1013.3 |
| 20260903143143 | 25 | 181 | 4.8 | 4.8 | 0.48 | 0.10 | 0.10 | 97 | 1013.3 |
| 20260903142639 | 25 | 311 | 8.0 | 11.3 | 0.00 | 0.03 | 0.03 | 93 | 1014.3 |
| 20260903142135 | 26 | 322 | 0.0 | 0.0 | 0.00 | 0.03 | 0.03 | 92 | 1013.7 |
| 20260903141631 | 26 | 316 | 1.6 | 1.6 | 0.00 | 0.03 | 0.03 | 89 | 1013.7 |
| 20260903141125 | 27 | 56 | 0.0 | 0.0 | 0.00 | 0.03 | 0.03 | 88 | 1013.2 |
| 20260903140622 | 26 | 45 | 0.0 | 0.0 | 0.00 | 0.03 | 0.03 | 90 | 1013.5 |
| 20260903140117 | 25 | 53 | 0.0 | 0.0 | 0.00 | 0.03 | 0.03 | 92 | 1013.4 |
| 20260903135613 | 26 | 299 | 0.0 | 0.0 | 0.00 | 0.03 | 0.03 | 91 | 1013.5 |
| 20260903135112 | 26 | 61 | 0.0 | 0.0 | 0.00 | 0.03 | 0.03 | 91 | 1013.6 |
| 20260903134611 | 25 | 316 | 0.0 | 0.0 | 0.00 | 0.03 | 0.03 | 93 | 1013.4 |
| 20260903134108 | 25 | 305 | 0.0 | 0.0 | 0.00 | 0.03 | 0.03 | 94 | 1013.7 |
| 20260903133605 | 25 | 307 | 0.0 | 0.0 | 0.00 | 0.03 | 0.03 | 97 | 1013.7 |
| 20260903133101 | 24 | 321 | 0.0 | 0.0 | 0.00 | 0.03 | 0.03 | 98 | 1014.0 |
| 20260903132556 | 23 | 265 | 0.0 | 0.0 | 0.00 | 0.03 | 0.03 | 99 | 1013.8 |
| 20260903132050 | 23 | 256 | 0.0 | 0.0 | 0.00 | 0.03 | 0.03 | 99 | 1014.0 |
| 20260903131549 | 23 | 60 | 0.0 | 0.0 | 0.00 | 0.03 | 0.03 | 99 | 1013.6 |
| 20260903131043 | 23 | 74 | 0.0 | 0.0 | 0.13 | 0.03 | 0.03 | 99 | 1013.8 |
| 20260903130538 | 23 | 68 | 0.0 | 0.0 | 0.13 | 0.03 | 0.03 | 99 | 1013.9 |
| 20260903130033 | 22 | 51 | 0.0 | 0.0 | 0.00 | 0.00 | 0.00 | 99 | 1013.9 |
| 20260903125531 | 22 | 84 | 0.0 | 0.0 | 0.00 | 0.00 | 0.00 | 99 | 1013.8 |
| 20260903125027 | 22 | 312 | 0.0 | 0.0 | 0.00 | 0.00 | 0.00 | 99 | 1013.7 |
| 20260903124527 | 22 | 312 | 0.0 | 0.0 | 0.00 | 0.00 | 0.00 | 99 | 1013.9 |
| 20260903124021 | 22 | 285 | 0.0 | 0.0 | 0.00 | 0.00 | 0.00 | 99 | 1014.0 |
| 20260903123521 | 22 | 82 | 0.0 | 0.0 | 0.00 | 0.00 | 0.00 | 99 | 1013.9 |
| 20260903123020 | 22 | 345 | 0.0 | 0.0 | 0.00 | 0.00 | 0.00 | 99 | 1014.0 |
| 20260903122514 | 21 | 41 | 0.0 | 0.0 | 0.00 | 0.00 | 0.00 | 99 | 1014.0 |
| 20260903122014 | 21 | 352 | 0.0 | 0.0 | 0.00 | 0.00 | 0.00 | 99 | 1014.1 |
| 20260903121509 | 21 | 267 | 0.0 | 0.0 | 0.00 | 0.00 | 0.00 | 99 | 1013.9 |
| 20260903121005 | 21 | 314 | 0.0 | 0.0 | 0.00 | 0.00 | 0.00 | 99 | 1014.1 |
| 20260903120503 | 21 | 343 | 0.0 | 0.0 | 0.00 | 0.00 | 0.00 | 99 | 1013.9 |
| 20260903120002 | 20 | 321 | 0.0 | 0.0 | 0.00 | 0.00 | 0.00 | 99 | 1013.8 |
| 20260903115456 | 20 | 310 | 0.0 | 0.0 | 0.00 | 0.00 | 0.00 | 99 | 1014.1 |
| 20260903114956 | 20 | 310 | 0.0 | 0.0 | 0.00 | 0.00 | 0.00 | 99 | 1014.0 |
| 20260903114451 | 20 | 297 | 0.0 | 0.0 | 0.00 | 0.00 | 0.00 | 99 | 1014.1 |
| 20260903113947 | 20 | 297 | 0.0 | 0.0 | 0.00 | 0.00 | 0.00 | 99 | 1013.8 |
| 20260903113443 | 20 | 289 | 0.0 | 0.0 | 0.00 | 0.00 | 0.00 | 99 | 1013.8 |
| 20260903112938 | 20 | 317 | 0.0 | 0.0 | 0.00 | 0.00 | 0.00 | 99 | 1013.7 |
| 20260903112434 | 20 | 320 | 0.0 | 0.0 | 0.00 | 0.00 | 0.00 | 99 | 1013.8 |
| 20260903111933 | 20 | 295 | 0.0 | 0.0 | 0.00 | 0.00 | 0.00 | 99 | 1013.8 |
| 20260903111427 | 20 | 294 | 0.0 | 0.0 | 0.00 | 0.00 | 0.00 | 99 | 1014.0 |
| 20260903110923 | 20 | 304 | 0.0 | 0.0 | 0.00 | 0.00 | 0.00 | 99 | 1013.8 |
| 20260903110419 | 20 | 298 | 0.0 | 0.0 | 0.00 | 0.00 | 0.00 | 99 | 1013.8 |
| 20260903105914 | 20 | 289 | 0.0 | 0.0 | 0.00 | 0.00 | 0.00 | 99 | 1013.5 |
| 20260903105409 | 20 | 303 | 0.0 | 0.0 | 0.00 | 0.00 | 0.00 | 99 | 1013.4 |
| 20260903104909 | 20 | 304 | 0.0 | 0.0 | 0.00 | 0.00 | 0.00 | 99 | 1013.6 |
| 20260903104403 | 20 | 318 | 0.0 | 0.0 | 0.00 | 0.00 | 0.00 | 99 | 1013.5 |
| 20260903103900 | 20 | 304 | 0.0 | 0.0 | 0.00 | 0.00 | 0.00 | 99 | 1013.4 |
| 20260903103356 | 20 | 313 | 0.0 | 0.0 | 0.00 | 0.00 | 0.00 | 99 | 1013.3 |
| 20260903102850 | 20 | 303 | 0.0 | 0.0 | 0.00 | 0.00 | 0.00 | 99 | 1013.8 |
| 20260903102345 | 20 | 302 | 0.0 | 0.0 | 0.00 | 0.00 | 0.00 | 99 | 1013.5 |
| 20260903101844 | 20 | 304 | 0.0 | 0.0 | 0.00 | 0.00 | 0.00 | 99 | 1013.5 |
| 20260903101334 | 20 | 293 | 0.0 | 0.0 | 0.00 | 0.00 | 0.00 | 99 | 1013.2 |
| 20260903100830 | 20 | 291 | 0.0 | 0.0 | 0.00 | 0.00 | 0.00 | 99 | 1013.3 |
| 20260903100330 | 20 | 309 | 0.0 | 0.0 | 0.00 | 0.00 | 0.00 | 99 | 1013.2 |
| 20260903095827 | 20 | 309 | 0.0 | 0.0 | 0.00 | 0.00 | 0.00 | 99 | 1013.3 |
| 20260903095321 | 20 | 319 | 0.0 | 0.0 | 0.00 | 0.00 | 0.00 | 99 | 1013.5 |
| 20260903094816 | 20 | 320 | 0.0 | 0.0 | 0.00 | 0.00 | 0.00 | 99 | 1013.2 |
| 20260903094311 | 20 | 282 | 0.0 | 0.0 | 0.00 | 0.00 | 0.00 | 99 | 1013.5 |
| 20260903093807 | 20 | 268 | 0.0 | 0.0 | 0.00 | 0.00 | 0.00 | 99 | 1013.3 |
| 20260903093301 | 20 | 304 | 0.0 | 0.0 | 0.00 | 0.00 | 0.00 | 99 | 1013.4 |
| 20260903092756 | 20 | 298 | 0.0 | 0.0 | 0.00 | 0.00 | 0.00 | 99 | 1013.2 |
| 20260903092251 | 20 | 298 | 0.0 | 0.0 | 0.00 | 0.00 | 0.00 | 99 | 1013.3 |
| 20260903091750 | 20 | 293 | 0.0 | 0.0 | 0.00 | 0.00 | 0.00 | 99 | 1013.3 |
| 20260903091244 | 20 | 303 | 0.0 | 0.0 | 0.00 | 0.00 | 0.00 | 99 | 1013.1 |
| 20260903090740 | 21 | 308 | 0.0 | 0.0 | 0.00 | 0.00 | 0.00 | 99 | 1013.2 |
| 20260903090239 | 21 | 282 | 0.0 | 0.0 | 0.00 | 0.00 | 0.00 | 99 | 1013.1 |
| 20260903085737 | 21 | 280 | 0.0 | 0.0 | 0.00 | 0.00 | 0.00 | 99 | 1013.1 |
| 20260903085233 | 21 | 278 | 0.0 | 0.0 | 0.00 | 0.00 | 0.00 | 99 | 1013.4 |
| 20260903084730 | 21 | 313 | 0.0 | 0.0 | 0.00 | 0.00 | 0.00 | 99 | 1012.9 |
| 20260903084226 | 21 | 280 | 0.0 | 0.0 | 0.00 | 0.00 | 0.00 | 99 | 1012.9 |
| 20260903083721 | 21 | 317 | 0.0 | 0.0 | 0.00 | 0.00 | 0.00 | 99 | 1013.1 |
| 20260903083221 | 21 | 295 | 0.0 | 0.0 | 0.00 | 0.00 | 0.00 | 99 | 1013.1 |
| 20260903082715 | 21 | 303 | 0.0 | 0.0 | 0.00 | 0.00 | 0.00 | 99 | 1012.9 |
| 20260903082211 | 21 | 297 | 0.0 | 0.0 | 0.00 | 0.00 | 0.00 | 99 | 1013.0 |
| 20260903081710 | 21 | 329 | 0.0 | 0.0 | 0.00 | 0.00 | 0.00 | 99 | 1013.0 |
| 20260903081207 | 21 | 290 | 0.0 | 0.0 | 0.00 | 0.00 | 0.00 | 99 | 1013.0 |
| 20260903080703 | 21 | 282 | 0.0 | 0.0 | 0.00 | 0.00 | 0.00 | 99 | 1013.0 |
| 20260903080200 | 21 | 304 | 0.0 | 0.0 | 0.00 | 0.00 | 0.00 | 99 | 1012.6 |
| 20260903075659 | 21 | 301 | 0.0 | 0.0 | 0.00 | 0.00 | 0.00 | 99 | 1013.0 |
| 20260903075154 | 21 | 301 | 0.0 | 0.0 | 0.00 | 0.00 | 0.00 | 99 | 1012.9 |
| 20260903074653 | 21 | 300 | 0.0 | 0.0 | 0.00 | 0.00 | 0.00 | 99 | 1012.7 |
| 20260903074149 | 21 | 277 | 0.0 | 0.0 | 0.00 | 0.00 | 0.00 | 99 | 1012.7 |
| 20260903073644 | 21 | 287 | 0.0 | 0.0 | 0.00 | 0.00 | 0.00 | 99 | 1012.7 |
| 20260903073139 | 21 | 289 | 0.0 | 0.0 | 0.00 | 0.00 | 0.00 | 99 | 1012.9 |
| 20260903072634 | 21 | 274 | 0.0 | 0.0 | 0.00 | 0.00 | 0.00 | 99 | 1012.7 |
| 20260903072131 | 21 | 281 | 0.0 | 0.0 | 0.00 | 0.00 | 0.00 | 99 | 1013.0 |
| 20260903071627 | 21 | 305 | 0.0 | 0.0 | 0.00 | 0.00 | 0.00 | 99 | 1013.0 |
| 20260903071123 | 21 | 275 | 0.0 | 0.0 | 0.00 | 0.00 | 0.00 | 99 | 1013.1 |
| 20260903070623 | 21 | 273 | 0.0 | 0.0 | 0.00 | 0.00 | 0.00 | 99 | 1013.0 |
| 20260903070119 | 21 | 282 | 0.0 | 0.0 | 0.00 | 0.00 | 0.00 | 99 | 1013.2 |
| 20260903065618 | 21 | 299 | 0.0 | 0.0 | 0.00 | 0.00 | 0.00 | 99 | 1012.7 |
| 20260903065118 | 21 | 299 | 0.0 | 0.0 | 0.00 | 0.00 | 0.00 | 99 | 1012.9 |
| 20260903064612 | 21 | 302 | 0.0 | 0.0 | 0.00 | 0.00 | 0.00 | 99 | 1012.7 |
| 20260903064107 | 21 | 299 | 0.0 | 0.0 | 0.00 | 0.00 | 0.00 | 99 | 1012.9 |
| 20260903063603 | 21 | 315 | 0.0 | 0.0 | 0.00 | 0.00 | 0.00 | 99 | 1013.0 |
| 20260903063058 | 21 | 315 | 0.0 | 0.0 | 0.00 | 0.00 | 0.00 | 99 | 1012.9 |
| 20260903062554 | 21 | 316 | 0.0 | 0.0 | 0.00 | 0.00 | 0.00 | 99 | 1012.9 |
| 20260903062049 | 21 | 316 | 0.0 | 0.0 | 0.00 | 0.00 | 0.00 | 99 | 1012.9 |
| 20260903061544 | 21 | 322 | 0.0 | 0.0 | 0.00 | 0.00 | 0.00 | 99 | 1012.9 |
| 20260903061044 | 21 | 303 | 0.0 | 0.0 | 0.00 | 0.00 | 0.00 | 99 | 1012.9 |
| 20260903060543 | 21 | 322 | 0.0 | 0.0 | 0.00 | 0.00 | 0.00 | 99 | 1013.0 |
| 20260903060038 | 21 | 251 | 0.0 | 0.0 | 0.00 | 0.00 | 0.00 | 99 | 1013.1 |
| 20260903055536 | 21 | 294 | 0.0 | 0.0 | 0.00 | 0.00 | 0.00 | 99 | 1013.0 |
| 20260903055035 | 21 | 255 | 0.0 | 0.0 | 0.00 | 0.00 | 0.00 | 99 | 1013.0 |
| 20260903054530 | 21 | 283 | 0.0 | 0.0 | 0.00 | 0.00 | 0.00 | 99 | 1013.0 |
| 20260903054026 | 21 | 300 | 0.0 | 0.0 | 0.00 | 0.00 | 0.00 | 99 | 1012.7 |
| 20260903053526 | 21 | 299 | 0.0 | 0.0 | 0.00 | 0.00 | 0.00 | 99 | 1012.6 |
| 20260903053022 | 21 | 290 | 0.0 | 0.0 | 0.00 | 0.00 | 0.00 | 99 | 1012.6 |
| 20260903052517 | 21 | 294 | 0.0 | 0.0 | 0.00 | 0.00 | 0.00 | 99 | 1012.6 |
| 20260903052013 | 21 | 328 | 0.0 | 0.0 | 0.00 | 0.00 | 0.00 | 99 | 1012.7 |
| 20260903051508 | 21 | 318 | 0.0 | 0.0 | 0.00 | 0.00 | 0.00 | 99 | 1012.7 |
| 20260903051004 | 21 | 318 | 0.0 | 0.0 | 0.00 | 0.00 | 0.00 | 99 | 1012.3 |
| 20260903050503 | 22 | 317 | 0.0 | 0.0 | 0.00 | 0.00 | 0.00 | 99 | 1012.9 |
| 20260903045957 | 22 | 51 | 0.0 | 0.0 | 0.00 | 0.00 | 0.00 | 99 | 1012.7 |
| 20260903045453 | 22 | 300 | 0.0 | 0.0 | 0.00 | 0.00 | 0.00 | 99 | 1013.0 |
| 20260903044949 | 22 | 286 | 0.0 | 0.0 | 0.00 | 0.00 | 0.00 | 99 | 1012.9 |
| 20260903044445 | 22 | 283 | 0.0 | 0.0 | 0.00 | 0.00 | 0.00 | 99 | 1013.0 |
| 20260903043941 | 22 | 273 | 0.0 | 0.0 | 0.00 | 0.00 | 0.00 | 99 | 1012.6 |
| 20260903043436 | 22 | 259 | 0.0 | 0.0 | 0.00 | 0.00 | 0.00 | 99 | 1012.6 |
| 20260903042934 | 22 | 305 | 0.0 | 0.0 | 0.00 | 0.00 | 0.00 | 99 | 1012.5 |
| 20260903042430 | 22 | 313 | 0.0 | 0.0 | 0.00 | 0.00 | 0.00 | 99 | 1012.4 |
| 20260903041926 | 22 | 299 | 0.0 | 0.0 | 0.00 | 0.00 | 0.00 | 99 | 1012.6 |
| 20260903041422 | 22 | 300 | 0.0 | 0.0 | 0.00 | 0.00 | 0.00 | 99 | 1012.7 |
| 20260903040918 | 22 | 306 | 0.0 | 0.0 | 0.00 | 0.00 | 0.00 | 99 | 1012.7 |
| 20260903040416 | 22 | 275 | 0.0 | 0.0 | 0.00 | 0.00 | 0.00 | 99 | 1012.6 |
| 20260903035913 | 22 | 188 | 3.2 | 3.2 | 0.00 | 0.53 | 0.53 | 99 | 1012.6 |
| 20260903035408 | 22 | 221 | 0.0 | 0.0 | 0.00 | 0.53 | 0.53 | 99 | 1012.1 |
| 20260903034903 | 22 | 318 | 0.0 | 0.0 | 0.00 | 0.53 | 0.53 | 99 | 1012.0 |
| 20260903034358 | 22 | 291 | 0.0 | 0.0 | 0.00 | 0.53 | 0.53 | 99 | 1012.2 |
| 20260903033853 | 22 | 284 | 0.0 | 0.0 | 0.00 | 0.53 | 0.53 | 99 | 1011.9 |
| 20260903033348 | 22 | 290 | 0.0 | 0.0 | 0.00 | 0.53 | 0.53 | 99 | 1011.8 |
| 20260903032848 | 22 | 311 | 0.0 | 0.0 | 0.00 | 0.53 | 0.53 | 99 | 1011.8 |
| 20260903032344 | 22 | 310 | 0.0 | 0.0 | 0.00 | 0.53 | 0.53 | 99 | 1011.8 |
| 20260903031839 | 22 | 285 | 0.0 | 0.0 | 0.00 | 0.53 | 0.53 | 99 | 1011.9 |
| 20260903031338 | 22 | 311 | 0.0 | 0.0 | 0.00 | 0.53 | 0.53 | 99 | 1011.9 |
| 20260903030834 | 22 | 306 | 0.0 | 0.0 | 0.00 | 0.53 | 0.53 | 99 | 1012.0 |
| 20260903030330 | 22 | 312 | 0.0 | 0.0 | 0.00 | 0.53 | 0.53 | 99 | 1011.7 |
| 20260903025826 | 22 | 303 | 0.0 | 0.0 | 0.00 | 0.53 | 0.53 | 99 | 1012.0 |
| 20260903025321 | 22 | 291 | 0.0 | 0.0 | 0.00 | 0.53 | 0.53 | 99 | 1012.2 |
| 20260903024820 | 22 | 283 | 0.0 | 0.0 | 0.00 | 0.53 | 0.53 | 99 | 1012.1 |
| 20260903024320 | 22 | 270 | 0.0 | 0.0 | 0.00 | 0.53 | 0.53 | 99 | 1011.9 |
| 20260903023816 | 22 | 300 | 0.0 | 0.0 | 0.00 | 0.53 | 0.53 | 99 | 1011.5 |
| 20260903023311 | 23 | 312 | 0.0 | 0.0 | 0.00 | 0.53 | 0.53 | 99 | 1011.2 |
| 20260903022806 | 23 | 306 | 0.0 | 0.0 | 0.00 | 0.53 | 0.53 | 99 | 1011.3 |
| 20260903022306 | 23 | 317 | 0.0 | 0.0 | 0.00 | 0.53 | 0.53 | 99 | 1011.7 |
| 20260903021759 | 23 | 59 | 0.0 | 0.0 | 0.00 | 0.53 | 0.53 | 99 | 1011.9 |
| 20260903021255 | 23 | 292 | 0.0 | 0.0 | 0.00 | 0.53 | 0.53 | 99 | 1012.1 |
| 20260903020754 | 23 | 324 | 0.0 | 0.0 | 0.00 | 0.53 | 0.53 | 99 | 1012.4 |
| 20260903020249 | 23 | 322 | 0.0 | 0.0 | 0.00 | 0.53 | 0.53 | 99 | 1012.3 |
| 20260903015744 | 23 | 310 | 0.0 | 0.0 | 0.00 | 0.53 | 0.53 | 99 | 1012.5 |
| 20260903015240 | 23 | 50 | 0.0 | 0.0 | 0.00 | 0.53 | 0.53 | 99 | 1012.5 |
| 20260903014735 | 23 | 9 | 0.0 | 0.0 | 0.00 | 0.53 | 0.53 | 99 | 1012.4 |
| 20260903014234 | 23 | 258 | 0.0 | 0.0 | 0.00 | 0.53 | 0.53 | 99 | 1012.3 |
| 20260903013730 | 23 | 307 | 0.0 | 0.0 | 0.00 | 0.53 | 0.53 | 99 | 1012.4 |
| 20260903013229 | 23 | 292 | 0.0 | 0.0 | 0.00 | 0.53 | 0.53 | 99 | 1012.3 |
| 20260903012727 | 23 | 312 | 0.0 | 0.0 | 0.00 | 0.53 | 0.53 | 99 | 1012.4 |
| 20260903012221 | 23 | 308 | 0.0 | 0.0 | 0.00 | 0.53 | 0.53 | 99 | 1012.3 |
| 20260903011716 | 23 | 300 | 0.0 | 0.0 | 0.00 | 0.53 | 0.53 | 99 | 1012.3 |
| 20260903011209 | 23 | 321 | 0.0 | 0.0 | 0.00 | 0.53 | 0.53 | 99 | 1012.0 |
| 20260903010706 | 23 | 285 | 0.0 | 0.0 | 0.00 | 0.53 | 0.53 | 99 | 1012.0 |
| 20260903010205 | 23 | 287 | 0.0 | 0.0 | 0.00 | 0.53 | 0.53 | 99 | 1012.0 |
| 20260903005659 | 23 | 298 | 0.0 | 0.0 | 0.00 | 0.53 | 0.53 | 99 | 1011.9 |
| 20260903005154 | 23 | 319 | 0.0 | 0.0 | 0.00 | 0.53 | 0.53 | 99 | 1011.7 |
| 20260903004650 | 23 | 291 | 0.0 | 0.0 | 0.00 | 0.53 | 0.53 | 99 | 1011.8 |
| 20260903004144 | 23 | 291 | 0.0 | 0.0 | 0.00 | 0.53 | 0.53 | 98 | 1011.6 |
| 20260903003640 | 23 | 320 | 0.0 | 0.0 | 0.00 | 0.53 | 0.53 | 98 | 1011.7 |
| 20260903003135 | 23 | 322 | 0.0 | 0.0 | 0.00 | 0.53 | 0.53 | 97 | 1011.5 |
| 20260903002630 | 23 | 318 | 0.0 | 0.0 | 0.00 | 0.53 | 0.53 | 97 | 1011.6 |
| 20260903002124 | 23 | 300 | 0.0 | 0.0 | 0.00 | 0.53 | 0.53 | 97 | 1011.4 |
| 20260903001619 | 24 | 307 | 0.0 | 0.0 | 0.00 | 0.53 | 0.53 | 96 | 1011.6 |
| 20260903001113 | 24 | 304 | 0.0 | 0.0 | 0.00 | 0.53 | 0.53 | 96 | 1011.6 |
| 20260903000609 | 24 | 80 | 0.0 | 0.0 | 0.00 | 0.53 | 0.53 | 95 | 1011.4 |
| 20260903000108 | 24 | 293 | 0.0 | 0.0 | 0.00 | 0.53 | 0.53 | 95 | 1011.4 |
| 20260902235607 | 24 | 308 | 0.0 | 0.0 | 0.00 | 0.53 | 0.53 | 94 | 1011.7 |
| 20260902235102 | 25 | 328 | 0.0 | 0.0 | 0.00 | 0.53 | 0.53 | 94 | 1011.7 |
| 20260902234556 | 25 | 341 | 0.0 | 0.0 | 0.00 | 0.53 | 0.53 | 94 | 1011.7 |
| 20260902234055 | 25 | 99 | 0.0 | 0.0 | 0.00 | 0.53 | 0.53 | 95 | 1011.8 |
| 20260902233550 | 25 | 93 | 0.0 | 0.0 | 0.00 | 0.53 | 0.53 | 97 | 1011.8 |
| 20260902233044 | 25 | 335 | 0.0 | 0.0 | 0.00 | 0.53 | 0.53 | 96 | 1011.7 |
| 20260902232544 | 25 | 356 | 0.0 | 1.6 | 0.00 | 0.53 | 0.53 | 96 | 1011.9 |
| 20260902232038 | 26 | 38 | 1.6 | 1.6 | 0.00 | 0.53 | 0.53 | 97 | 1011.7 |
| 20260902231533 | 26 | 327 | 1.6 | 3.2 | 0.00 | 0.53 | 0.53 | 97 | 1011.6 |
| 20260902231033 | 26 | 4 | 0.0 | 0.0 | 0.00 | 0.53 | 0.53 | 96 | 1011.5 |
| 20260902230533 | 26 | 327 | 0.0 | 0.0 | 0.00 | 0.53 | 0.53 | 95 | 1011.3 |
| 20260902230026 | 26 | 281 | 0.0 | 0.0 | 0.00 | 0.53 | 0.53 | 95 | 1011.1 |
| 20260902225522 | 26 | 316 | 0.0 | 0.0 | 0.00 | 0.53 | 0.53 | 95 | 1011.0 |
| 20260902225016 | 26 | 306 | 0.0 | 0.0 | 0.00 | 0.53 | 0.53 | 95 | 1011.0 |
| 20260902224515 | 26 | 284 | 0.0 | 0.0 | 0.00 | 0.53 | 0.53 | 94 | 1011.0 |
| 20260902224011 | 27 | 293 | 0.0 | 0.0 | 0.00 | 0.53 | 0.53 | 92 | 1011.0 |
| 20260902223507 | 26 | 308 | 0.0 | 0.0 | 0.18 | 0.53 | 0.53 | 89 | 1011.1 |
| 20260902223006 | 27 | 298 | 0.0 | 0.0 | 0.18 | 0.53 | 0.53 | 87 | 1011.0 |
| 20260902222504 | 28 | 308 | 0.0 | 0.0 | 0.00 | 0.51 | 0.51 | 82 | 1011.0 |
| 20260902221958 | 28 | 19 | 0.0 | 0.0 | 0.00 | 0.51 | 0.51 | 78 | 1011.0 |
| 20260902221458 | 28 | 255 | 0.0 | 0.0 | 0.00 | 0.51 | 0.51 | 79 | 1011.2 |
| 20260902220953 | 28 | 25 | 0.0 | 0.0 | 0.00 | 0.51 | 0.51 | 79 | 1011.1 |
| 20260902220453 | 28 | 336 | 0.0 | 0.0 | 0.00 | 0.51 | 0.51 | 79 | 1011.2 |
| 20260902215942 | 30 | 209 | 4.8 | 8.0 | 0.00 | 0.51 | 0.51 | 77 | 1011.6 |
| 20260902215438 | 32 | 321 | 6.4 | 9.7 | 0.00 | 0.51 | 0.51 | 67 | 1011.5 |
| 20260902214934 | 33 | 251 | 3.2 | 3.2 | 0.00 | 0.51 | 0.51 | 65 | 1011.0 |
| 20260902214432 | 33 | 2 | 0.0 | 3.2 | 0.00 | 0.51 | 0.51 | 63 | 1010.6 |
| 20260902213927 | 33 | 222 | 1.6 | 3.2 | 0.00 | 0.51 | 0.51 | 64 | 1010.8 |
| 20260902213423 | 33 | 293 | 3.2 | 8.0 | 0.00 | 0.51 | 0.51 | 63 | 1010.1 |
| 20260902212922 | 32 | 275 | 11.3 | 12.9 | 0.00 | 0.51 | 0.51 | 63 | 1010.2 |
| 20260902212418 | 33 | 280 | 8.0 | 12.9 | 0.00 | 0.51 | 0.51 | 63 | 1009.9 |
| 20260902211914 | 32 | 272 | 8.0 | 9.7 | 0.00 | 0.51 | 0.51 | 64 | 1010.5 |
| 20260902211409 | 32 | 248 | 4.8 | 4.8 | 0.00 | 0.51 | 0.51 | 64 | 1011.0 |
| 20260902210859 | 33 | 270 | 0.0 | 0.0 | 0.00 | 0.51 | 0.51 | 64 | 1010.8 |
| 20260902210358 | 33 | 242 | 4.8 | 8.0 | 0.00 | 0.51 | 0.51 | 63 | 1011.0 |
| 20260902205857 | 33 | 289 | 8.0 | 9.7 | 0.00 | 0.51 | 0.51 | 62 | 1010.8 |
| 20260902205351 | 32 | 270 | 14.5 | 16.1 | 0.00 | 0.51 | 0.51 | 63 | 1010.8 |
| 20260902204848 | 33 | 236 | 3.2 | 11.3 | 0.00 | 0.51 | 0.51 | 63 | 1011.0 |
| 20260902204347 | 33 | 243 | 8.0 | 8.0 | 0.00 | 0.51 | 0.51 | 62 | 1011.0 |
| 20260902203843 | 33 | 122 | 3.2 | 4.8 | 0.00 | 0.51 | 0.51 | 62 | 1011.0 |
| 20260902203338 | 33 | 245 | 1.6 | 3.2 | 0.00 | 0.51 | 0.51 | 63 | 1011.0 |
| 20260902202832 | 33 | 266 | 8.0 | 11.3 | 0.00 | 0.51 | 0.51 | 63 | 1011.0 |
| 20260902202328 | 33 | 290 | 0.0 | 0.0 | 0.00 | 0.51 | 0.51 | 62 | 1010.9 |
| 20260902201824 | 33 | 218 | 3.2 | 3.2 | 0.00 | 0.51 | 0.51 | 63 | 1010.8 |
| 20260902201319 | 33 | 349 | 1.6 | 3.2 | 0.00 | 0.51 | 0.51 | 63 | 1010.9 |
| 20260902200814 | 33 | 322 | 1.6 | 3.2 | 0.00 | 0.51 | 0.51 | 63 | 1011.2 |
| 20260902200309 | 33 | 301 | 3.2 | 8.0 | 0.00 | 0.51 | 0.51 | 63 | 1011.4 |